Weather History for Abbeville, LA

Change the Weather History Date:

Friday, January 18, 2013

  Actual Average (KARA) Record (KARA)
Temperature  
Mean Temperature 48 °F 53 °F  
Max Temperature 60 °F 63 °F 80 °F (1950)
Min Temperature 35 °F 43 °F 19 °F (1948)
Degree Days  
Heating Degree Days 18 13  
Month to date heating degree days 234  
Since 1 July heating degree days 781  
Cooling Degree Days 0 0  
Month to date cooling degree days 9  
Year to date cooling degree days 9  
Moisture  
Dew Point 37 °F    
Average Humidity 76    
Maximum Humidity 100    
Minimum Humidity 35    
Precipitation  
Precipitation 0.00 in 0.17 in 2.60 in (1992)
Month to date precipitation 2.99  
Year to date precipitation 2.99  
Sea Level Pressure  
Sea Level Pressure 30.46 in    
Wind  
Wind Speed 5 mph (East)    
Max Wind Speed 12 mph    
Max Gust Speed 17 mph    
Visibility 9 miles    
Events Fog    
T = Trace of Precipitation, MM = Missing Value Source: NWS Daily Summary

Daily Weather History Graph

Daily Weather History Graph

Search for Another Location

Airport:

Trip Planner

Search our weather history database for the weather conditions in past years. The results will help you decide how hot, cold, wet, or windy it might be!

Date:

Astronomy

Jan. 18, 2013 Rise Set
Actual Time 7:04 AM CST 5:33 PM CST
Civil Twilight 6:38 AM CST 5:59 PM CST
Nautical Twilight 6:09 AM CST 6:28 PM CST
Astronomical Twilight 5:40 AM CST 6:57 PM CST
Moon 11:19 AM CST (1/18) No Moon Set
Length of Visible Light 11h 20m
Length of Day
10h 29m
Waxing Crescent, 47% of the Moon is Illuminated
Jan 18
Waxing Crescent
Jan 18
First Quarter
Jan 26
Full
Feb 3
Last Quarter
Feb 10
New

Hourly Weather History & Observations

Time (CST) Temp. Windchill Dew Point Humidity Pressure Visibility Wind Dir Wind Speed Gust Speed Precip Events Conditions
12:15 AM 38.3 °F - 38.3 °F 100% 30.46 in 10.0 mi North - - N/A   Clear
12:35 AM 38.1 °F - 38.1 °F 100% 30.46 in 10.0 mi North - - N/A   Clear
12:55 AM 37.8 °F 34.2 °F 37.4 °F 99% 30.47 in 10.0 mi SSE 4.6 mph - N/A   Clear
1:15 AM 38.3 °F 33.9 °F 37.9 °F 99% 30.48 in 10.0 mi SSE 5.8 mph - N/A   Clear
1:35 AM 39.0 °F 35.7 °F 38.5 °F 98% 30.48 in 10.0 mi SE 4.6 mph - N/A   Clear
1:55 AM 37.6 °F - 37.4 °F 99% 30.48 in 10.0 mi North - - N/A   Clear
2:15 AM 37.4 °F 34.9 °F 37.4 °F 100% 30.48 in 10.0 mi SE 3.5 mph - N/A   Clear
2:35 AM 36.0 °F 33.3 °F 36.0 °F 100% 30.48 in 10.0 mi ESE 3.5 mph - N/A   Clear
2:55 AM 35.8 °F 33.0 °F 35.8 °F 100% 30.48 in 10.0 mi ESE 3.5 mph - N/A   Clear
3:15 AM 36.3 °F 32.5 °F 36.1 °F 99% 30.48 in 10.0 mi SE 4.6 mph - N/A   Clear
3:35 AM 36.9 °F 32.2 °F 36.5 °F 99% 30.48 in 10.0 mi ESE 5.8 mph - N/A   Clear
3:55 AM 36.7 °F 32.0 °F 36.1 °F 98% 30.49 in 10.0 mi SE 5.8 mph - N/A   Clear
4:15 AM 36.9 °F - 36.3 °F 98% 30.48 in 10.0 mi North - - N/A   Clear
4:35 AM 37.8 °F 35.3 °F 37.4 °F 99% 30.48 in 10.0 mi NNE 3.5 mph - N/A   Clear
4:55 AM 38.5 °F 36.1 °F 37.8 °F 97% 30.48 in 10.0 mi NNE 3.5 mph - N/A   Clear
5:15 AM 37.0 °F - 36.3 °F 97% 30.48 in 10.0 mi North - - N/A   Clear
5:35 AM 37.4 °F - 37.0 °F 99% 30.48 in 10.0 mi North - - N/A   Clear
5:55 AM 39.2 °F - 37.8 °F 95% 30.49 in 10.0 mi North - - N/A   Clear
6:15 AM 39.7 °F 35.6 °F 38.1 °F 94% 30.49 in 10.0 mi NE 5.8 mph - N/A   Clear
6:35 AM 40.3 °F - 38.3 °F 93% 30.49 in 10.0 mi North - - N/A   Clear
6:55 AM 40.3 °F 36.3 °F 38.3 °F 93% 30.50 in 10.0 mi NE 5.8 mph - N/A   Clear
7:15 AM 40.1 °F - 38.1 °F 93% 30.50 in 10.0 mi North - - N/A   Clear
7:35 AM 40.1 °F - 38.3 °F 93% 30.52 in 10.0 mi North - - N/A   Clear
7:55 AM 41.2 °F - 38.8 °F 91% 30.52 in 10.0 mi North - - N/A   Clear
8:15 AM 42.6 °F - 39.9 °F 90% 30.51 in 10.0 mi North - - N/A   Clear
8:35 AM 43.7 °F 38.1 °F 40.1 °F 87% 30.52 in 10.0 mi NE 10.4 mph - N/A   Clear
8:55 AM 44.8 °F 39.9 °F 40.1 °F 84% 30.52 in 10.0 mi NE 9.2 mph - N/A   Clear
9:15 AM 45.7 °F 40.6 °F 39.9 °F 80% 30.53 in 10.0 mi ENE 10.4 mph 17.3 mph N/A   Clear
9:35 AM 47.3 °F - 40.5 °F 77% 30.54 in 10.0 mi ENE 8.1 mph - N/A   Clear
9:55 AM 49.5 °F - 40.5 °F 71% 30.53 in 10.0 mi NE 9.2 mph - N/A   Clear
10:15 AM 50.7 °F - 39.4 °F 65% 30.53 in 10.0 mi NE 9.2 mph - N/A   Clear
10:35 AM 51.6 °F - 38.1 °F 60% 30.53 in 10.0 mi NE 6.9 mph - N/A   Clear
10:55 AM 53.1 °F - 38.3 °F 57% 30.52 in 10.0 mi ENE 5.8 mph - N/A   Clear
11:15 AM 53.6 °F - 38.3 °F 56% 30.51 in 10.0 mi NNE 6.9 mph - N/A   Clear
11:35 AM 54.7 °F - 38.5 °F 54% 30.50 in 10.0 mi NE 4.6 mph - N/A   Clear
11:55 AM 55.9 °F - 34.2 °F 44% 30.49 in 10.0 mi ENE 6.9 mph - N/A   Clear
12:15 PM 56.3 °F - 34.9 °F 45% 30.47 in 10.0 mi ENE 6.9 mph - N/A   Clear
12:35 PM 57.4 °F - 34.9 °F 43% 30.46 in 10.0 mi NE 8.1 mph - N/A   Clear
12:55 PM 57.6 °F - 32.9 °F 39% 30.46 in 10.0 mi ENE 4.6 mph - N/A   Clear
1:15 PM 58.1 °F - 33.4 °F 39% 30.45 in 10.0 mi NE 5.8 mph - N/A   Clear
1:35 PM 58.3 °F - 32.4 °F 38% 30.43 in 10.0 mi NE 4.6 mph - N/A   Clear
1:55 PM 59.0 °F - 34.0 °F 39% 30.42 in 10.0 mi NE 5.8 mph - N/A   Clear
2:15 PM 59.7 °F - 34.2 °F 38% 30.42 in 10.0 mi NE 11.5 mph - N/A   Clear
2:35 PM 59.9 °F - 34.2 °F 38% 30.41 in 10.0 mi NE 5.8 mph - N/A   Clear
2:55 PM 60.1 °F - 32.5 °F 35% 30.41 in 10.0 mi NE 5.8 mph - N/A   Clear
3:15 PM 60.6 °F - 32.5 °F 35% 30.40 in 10.0 mi NE 4.6 mph - N/A   Clear
3:35 PM 59.9 °F - 32.0 °F 35% 30.40 in 10.0 mi NE 6.9 mph - N/A   Clear
3:55 PM 60.1 °F - 32.2 °F 35% 30.40 in 10.0 mi ENE 4.6 mph - N/A   Clear
4:15 PM 59.7 °F - 31.8 °F 35% 30.40 in 10.0 mi ENE 4.6 mph - N/A   Clear
4:35 PM 59.4 °F - 31.3 °F 35% 30.40 in 10.0 mi ENE 3.5 mph - N/A   Clear
4:55 PM 58.3 °F - 31.8 °F 37% 30.41 in 10.0 mi Calm Calm - N/A   Clear
5:15 PM 57.4 °F - 32.9 °F 40% 30.41 in 10.0 mi Calm Calm - N/A   Clear
5:55 PM 52.7 °F - 34.0 °F 49% 30.41 in 10.0 mi Calm Calm - N/A   Clear
6:15 PM 48.2 °F - 36.9 °F 65% 30.42 in 10.0 mi Calm Calm - N/A   Clear
6:35 PM 48.6 °F - 36.3 °F 63% 30.42 in 10.0 mi SSE 3.5 mph - N/A   Clear
6:55 PM 48.0 °F - 37.6 °F 67% 30.42 in 10.0 mi SSE 4.6 mph - N/A   Clear
7:15 PM 46.8 °F - 37.6 °F 70% 30.42 in 10.0 mi SSE 3.5 mph - N/A   Clear
7:35 PM 46.8 °F - 38.3 °F 72% 30.42 in 10.0 mi SSE 3.5 mph - N/A   Clear
7:55 PM 44.8 °F 43.3 °F 40.1 °F 84% 30.42 in 10.0 mi SSE 3.5 mph - N/A   Clear
8:15 PM 43.5 °F 40.9 °F 40.1 °F 88% 30.42 in 10.0 mi South 4.6 mph - N/A   Clear
8:35 PM 45.0 °F 42.6 °F 41.4 °F 87% 30.42 in 10.0 mi South 4.6 mph - N/A   Clear
8:55 PM 44.4 °F - 41.9 °F 91% 30.42 in 10.0 mi Calm Calm - N/A   Clear
9:15 PM 41.9 °F - 41.9 °F 100% 30.42 in 10.0 mi Calm Calm - N/A   Clear
9:35 PM 42.4 °F - 42.4 °F 100% 30.42 in 10.0 mi Calm Calm - N/A   Clear
9:55 PM 41.9 °F - 41.9 °F 100% 30.42 in 10.0 mi Calm Calm - N/A   Clear
10:15 PM 41.2 °F - 41.2 °F 100% 30.42 in 10.0 mi Calm Calm - N/A   Clear
10:35 PM 40.1 °F - 40.1 °F 100% 30.41 in 7.0 mi Calm Calm - N/A   Clear
10:55 PM 39.4 °F - 39.4 °F 100% 30.41 in 0.8 mi North - - N/A   Mist
11:15 PM 39.6 °F - 39.6 °F 100% 30.40 in 0.8 mi North - - N/A   Mist
11:35 PM 37.6 °F - 37.6 °F 100% 30.39 in 1.0 mi North - - N/A   Mist
11:55 PM 38.5 °F 35.0 °F 38.5 °F 100% 30.39 in 0.5 mi SE 4.6 mph - N/A Fog Fog